TimeMDT,TemperatureF,Dew PointF,Humidity,Sea Level PressureIn,VisibilityMPH,Wind Direction,Wind SpeedMPH,Gust SpeedMPH,PrecipitationIn,Events,Conditions,WindDirDegrees,DateUTC
12:52 AM,64.0,55.0,73,29.94,10.0,Calm,Calm,-,N/A,,Clear,0,2013-07-25 06:52:00
1:52 AM,66.0,57.0,73,29.92,10.0,SSE,8.1,-,N/A,,Clear,160,2013-07-25 07:52:00
2:52 AM,68.0,57.0,68,29.89,10.0,South,15.0,-,N/A,,Clear,170,2013-07-25 08:52:00
3:38 AM,66.2,55.4,68,30.08,10.0,NNW,39.1,52.9,N/A,,Squalls,340,2013-07-25 09:38:00
3:52 AM,57.9,55.0,90,30.01,10.0,North,35.7,47.2,0.00,Rain,Light Rain,350,2013-07-25 09:52:00
4:08 AM,57.2,55.4,94,30.10,10.0,NNW,26.5,42.6,0.00,Rain-Thunderstorm,Light Thunderstorms and Rain,340,2013-07-25 10:08:00
4:25 AM,59.0,55.4,88,30.12,10.0,NW,21.9,32.2,0.00,Rain-Thunderstorm,Light Rain,320,2013-07-25 10:25:00
4:52 AM,59.0,57.0,93,30.00,9.0,North,19.6,26.5,0.05,Rain,Light Rain,10,2013-07-25 10:52:00
5:40 AM,59.0,57.2,94,30.11,10.0,NNW,9.2,-,0.00,Thunderstorm,Mostly Cloudy,330,2013-07-25 11:40:00
5:52 AM,60.1,57.0,90,30.03,10.0,NW,5.8,-,0.00,,Mostly Cloudy,320,2013-07-25 11:52:00
6:52 AM,61.0,57.0,87,30.05,10.0,WNW,6.9,-,N/A,,Overcast,290,2013-07-25 12:52:00
7:13 AM,60.8,57.2,88,30.11,10.0,West,6.9,-,N/A,,Mostly Cloudy,260,2013-07-25 13:13:00
7:40 AM,62.6,57.2,82,30.10,10.0,Calm,Calm,-,N/A,,Mostly Cloudy,0,2013-07-25 13:40:00
7:52 AM,63.0,57.0,81,30.02,10.0,Calm,Calm,-,N/A,,Overcast,0,2013-07-25 13:52:00
8:27 AM,64.4,57.2,77,30.10,10.0,North,4.6,-,N/A,,Scattered Clouds,10,2013-07-25 14:27:00
8:52 AM,66.0,57.9,75,30.04,10.0,ENE,8.1,-,N/A,,Partly Cloudy,70,2013-07-25 14:52:00
9:14 AM,66.2,57.2,73,30.11,10.0,NNE,5.8,-,N/A,,Mostly Cloudy,30,2013-07-25 15:14:00
9:52 AM,68.0,59.0,73,30.05,10.0,Variable,3.5,-,N/A,,Mostly Cloudy,0,2013-07-25 15:52:00
10:31 AM,71.6,59.0,64,30.13,10.0,NNE,8.1,-,N/A,,Scattered Clouds,30,2013-07-25 16:31:00
10:52 AM,72.0,59.0,64,30.07,10.0,NNE,8.1,-,N/A,,Partly Cloudy,20,2013-07-25 16:52:00
11:52 AM,75.9,57.9,54,30.06,10.0,North,10.4,-,N/A,,Clear,10,2013-07-25 17:52:00
12:52 PM,81.0,55.0,41,30.06,10.0,NNW,16.1,23.0,N/A,,Clear,330,2013-07-25 18:52:00
1:52 PM,82.9,55.0,38,30.05,10.0,NNW,16.1,25.3,N/A,,Partly Cloudy,340,2013-07-25 19:52:00
2:52 PM,82.9,53.1,36,30.05,10.0,NNW,17.3,23.0,N/A,,Partly Cloudy,340,2013-07-25 20:52:00
3:52 PM,82.0,51.1,34,30.06,10.0,NNW,17.3,24.2,N/A,,Clear,330,2013-07-25 21:52:00
4:52 PM,82.0,52.0,35,30.06,10.0,North,17.3,24.2,N/A,,Scattered Clouds,10,2013-07-25 22:52:00
5:52 PM,82.0,50.0,33,30.06,10.0,North,15.0,-,N/A,,Partly Cloudy,10,2013-07-25 23:52:00
6:52 PM,80.1,48.9,34,30.05,10.0,NNW,12.7,-,N/A,,Clear,340,2013-07-26 00:52:00
7:52 PM,75.0,48.9,40,30.08,10.0,NNE,10.4,-,N/A,,Clear,20,2013-07-26 01:52:00
8:52 PM,69.1,50.0,51,30.10,10.0,NNE,9.2,-,N/A,,Clear,30,2013-07-26 02:52:00
9:52 PM,64.9,50.0,58,30.13,10.0,NNE,11.5,-,N/A,,Clear,30,2013-07-26 03:52:00
10:52 PM,62.1,50.0,65,30.16,10.0,North,9.2,-,N/A,,Clear,10,2013-07-26 04:52:00
11:52 PM,57.9,50.0,75,30.18,10.0,NNW,5.8,-,N/A,,Clear,330,2013-07-26 05:52:00